TimeCDT,TemperatureF,Dew PointF,Humidity,Sea Level PressureIn,VisibilityMPH,Wind Direction,Wind SpeedMPH,Gust SpeedMPH,PrecipitationIn,Events,Conditions,WindDirDegrees,DateUTC
12:53 AM,32.0,28.9,88,29.99,10.0,Calm,Calm,-,N/A,,Clear,0,2012-10-02 05:53:00
1:53 AM,30.9,28.9,92,29.98,10.0,Calm,Calm,-,N/A,,Clear,0,2012-10-02 06:53:00
2:53 AM,28.0,26.1,92,29.97,10.0,Calm,Calm,-,N/A,,Clear,0,2012-10-02 07:53:00
3:53 AM,28.9,27.0,92,29.98,10.0,Calm,Calm,-,N/A,,Clear,0,2012-10-02 08:53:00
4:53 AM,26.1,25.0,96,29.99,10.0,Calm,Calm,-,N/A,,Clear,0,2012-10-02 09:53:00
5:53 AM,25.0,24.1,96,30.00,10.0,NW,3.5,-,N/A,,Clear,320,2012-10-02 10:53:00
6:53 AM,26.1,24.1,92,30.01,10.0,Calm,Calm,-,N/A,,Clear,0,2012-10-02 11:53:00
7:53 AM,28.0,26.1,92,30.01,10.0,Calm,Calm,-,N/A,,Clear,0,2012-10-02 12:53:00
8:53 AM,39.0,34.0,82,30.00,10.0,Calm,Calm,-,N/A,,Clear,0,2012-10-02 13:53:00
9:53 AM,48.0,36.0,63,29.99,10.0,South,3.5,-,N/A,,Clear,180,2012-10-02 14:53:00
10:53 AM,55.9,37.0,49,29.96,10.0,Variable,5.8,-,N/A,,Clear,0,2012-10-02 15:53:00
11:53 AM,62.1,36.0,38,29.93,10.0,South,9.2,-,N/A,,Clear,170,2012-10-02 16:53:00
12:53 PM,64.0,35.1,34,29.90,10.0,South,8.1,19.6,N/A,,Clear,170,2012-10-02 17:53:00
1:53 PM,66.0,33.1,29,29.86,10.0,South,9.2,25.3,N/A,,Clear,180,2012-10-02 18:53:00
2:53 PM,66.9,34.0,30,29.84,10.0,South,11.5,19.6,N/A,,Clear,170,2012-10-02 19:53:00
3:53 PM,68.0,32.0,26,29.83,10.0,South,12.7,21.9,N/A,,Clear,180,2012-10-02 20:53:00
4:53 PM,68.0,32.0,26,29.82,10.0,South,11.5,19.6,N/A,,Clear,170,2012-10-02 21:53:00
5:53 PM,66.9,30.0,25,29.81,10.0,Variable,5.8,-,N/A,,Clear,0,2012-10-02 22:53:00
6:53 PM,62.1,30.9,31,29.82,10.0,Variable,3.5,-,N/A,,Clear,0,2012-10-02 23:53:00
7:53 PM,59.0,33.1,38,29.85,10.0,South,4.6,-,N/A,,Clear,170,2012-10-03 00:53:00
8:53 PM,52.0,37.9,59,29.86,10.0,SE,6.9,-,N/A,,Clear,140,2012-10-03 01:53:00
9:53 PM,48.0,37.9,68,29.87,10.0,SE,4.6,-,N/A,,Clear,140,2012-10-03 02:53:00
10:53 PM,44.1,37.0,76,29.87,10.0,SE,3.5,-,N/A,,Clear,130,2012-10-03 03:53:00
11:53 PM,39.0,36.0,89,29.87,10.0,Calm,Calm,-,N/A,,Clear,0,2012-10-03 04:53:00